�������l�o���
Date,Time,MP-1(��Sv/h),MP-2(��Sv/h),MP-3(��Sv/h),MP-4(��Sv/h),MP-5(��Sv/h),MP-6(��Sv/h),MP-7(��Sv/h),MP-8(��Sv/h),����,����(m/s),���J
2016/12/20,00:00,1.092,1.829,1.194,2.078,1.422,0.568,1.036,0.961,�쐼,3.2,��
2016/12/20,00:10,1.094,1.830,1.193,2.080,1.424,0.570,1.036,0.961,���쐼,2.8,��
2016/12/20,00:20,1.093,1.831,1.195,2.079,1.424,0.569,1.036,0.962,�쐼,1.5,��
2016/12/20,00:30,1.092,1.828,1.193,2.076,1.422,0.566,1.035,0.963,�쐼,2.0,��
2016/12/20,00:40,1.091,1.830,1.193,2.074,1.427,0.567,1.036,0.960,��쐼,2.3,��
2016/12/20,00:50,1.092,1.829,1.192,2.080,1.423,0.567,1.037,0.961,��쐼,3.6,��
2016/12/20,01:00,1.092,1.828,1.194,2.077,1.422,0.568,1.036,0.960,�쐼,4.3,��
2016/12/20,01:10,1.095,1.831,1.194,2.079,1.427,0.569,1.038,0.961,�쐼,4.3,��
2016/12/20,01:20,1.093,1.830,1.193,2.079,1.423,0.567,1.035,0.961,�쐼,5.1,��
2016/12/20,01:30,1.091,1.831,1.194,2.074,1.426,0.569,1.036,0.961,��쐼,7.0,��
2016/12/20,01:40,1.093,1.828,1.194,2.077,1.424,0.568,1.038,0.963,��쐼,6.3,��
2016/12/20,01:50,1.093,1.832,1.195,2.076,1.426,0.568,1.038,0.959,��쐼,4.5,��
2016/12/20,02:00,1.092,1.832,1.193,2.079,1.425,0.569,1.039,0.962,��쐼,6.5,��
2016/12/20,02:10,1.093,1.830,1.195,2.076,1.422,0.568,1.037,0.963,��쐼,5.8,��
2016/12/20,02:20,1.094,1.828,1.193,2.077,1.422,0.568,1.038,0.961,��,4.7,��
2016/12/20,02:30,1.094,1.830,1.193,2.077,1.427,0.568,1.037,0.961,��쐼,3.9,��
2016/12/20,02:40,1.090,1.829,1.195,2.076,1.426,0.570,1.039,0.961,��쐼,2.0,��
2016/12/20,02:50,1.094,1.828,1.194,2.081,1.425,0.566,1.038,0.960,���쐼,2.2,��
2016/12/20,03:00,1.095,1.829,1.192,2.082,1.422,0.569,1.039,0.962,���쐼,0.9,��
2016/12/20,03:10,1.094,1.828,1.194,2.077,1.427,0.568,1.037,0.961,��,2.3,��
2016/12/20,03:20,1.095,1.829,1.193,2.076,1.423,0.568,1.037,0.960,��,1.9,��
2016/12/20,03:30,1.094,1.826,1.192,2.078,1.426,0.568,1.038,0.961,�쐼,0.8,��
2016/12/20,03:40,1.092,1.828,1.192,2.079,1.423,0.569,1.039,0.961,���쐼,0.9,��
2016/12/20,03:50,1.094,1.830,1.194,2.081,1.424,0.569,1.037,0.961,�쐼,1.2,��
2016/12/20,04:00,1.094,1.826,1.195,2.079,1.422,0.568,1.038,0.962,��,2.3,��
2016/12/20,04:10,1.092,1.828,1.195,2.078,1.424,0.567,1.038,0.960,�쐼,2.3,��
2016/12/20,04:20,1.092,1.831,1.193,2.079,1.423,0.570,1.037,0.961,��,2.3,��
2016/12/20,04:30,1.091,1.828,1.195,2.079,1.425,0.568,1.037,0.961,�k�k��,1.4,��
2016/12/20,04:40,1.092,1.831,1.191,2.080,1.423,0.569,1.039,0.963,�k�k��,4.3,��
2016/12/20,04:50,1.090,1.830,1.193,2.080,1.423,0.569,1.039,0.961,�k�k��,4.1,��
2016/12/20,05:00,1.091,1.832,1.190,2.081,1.425,0.567,1.038,0.962,�k�k��,3.3,��
2016/12/20,05:10,1.091,1.828,1.193,2.078,1.428,0.568,1.037,0.959,�k�k��,3.8,��
2016/12/20,05:20,1.092,1.831,1.193,2.081,1.422,0.565,1.035,0.960,�k�k��,3.6,��
2016/12/20,05:30,1.091,1.827,1.193,2.082,1.423,0.569,1.038,0.961,�k�k��,3.4,��
2016/12/20,05:40,1.091,1.830,1.194,2.077,1.425,0.568,1.037,0.960,�k��,4.0,��
2016/12/20,05:50,1.091,1.828,1.193,2.080,1.425,0.566,1.034,0.960,�k�k��,4.0,��
2016/12/20,06:00,1.092,1.827,1.191,2.081,1.425,0.568,1.037,0.962,�k�k��,4.4,��
2016/12/20,06:10,1.090,1.829,1.195,2.079,1.424,0.568,1.037,0.959,���k��,3.5,��
2016/12/20,06:20,1.090,1.830,1.191,2.080,1.423,0.567,1.038,0.962,��,4.2,��
2016/12/20,06:30,1.090,1.828,1.190,2.078,1.424,0.567,1.036,0.959,��,4.7,��
2016/12/20,06:40,1.090,1.828,1.189,2.080,1.422,0.567,1.035,0.960,���k��,4.1,��
2016/12/20,06:50,1.091,1.826,1.190,2.081,1.423,0.567,1.035,0.962,�k��,5.6,��
2016/12/20,07:00,1.090,1.827,1.190,2.079,1.423,0.567,1.034,0.959,�k��,5.1,��
2016/12/20,07:10,1.087,1.830,1.188,2.078,1.423,0.569,1.033,0.961,�k��,4.2,��
2016/12/20,07:20,1.089,1.827,1.191,2.078,1.423,0.566,1.035,0.960,�k��,5.1,��
2016/12/20,07:30,1.088,1.825,1.192,2.077,1.423,0.566,1.034,0.959,�k��,5.2,��
2016/12/20,07:40,1.090,1.826,1.189,2.077,1.420,0.567,1.036,0.960,�k�k��,5.6,��
2016/12/20,07:50,1.093,1.830,1.190,2.080,1.422,0.567,1.035,0.959,�k��,5.4,��
2016/12/20,08:00,1.090,1.827,1.192,2.080,1.426,0.568,1.036,0.961,�k�k��,5.5,��
2016/12/20,08:10,1.091,1.824,1.190,2.082,1.423,0.566,1.036,0.960,�k�k��,5.4,��
2016/12/20,08:20,1.089,1.828,1.192,2.080,1.421,0.567,1.035,0.963,�k��,5.8,��
2016/12/20,08:30,1.093,1.826,1.189,2.079,1.422,0.567,1.035,0.960,���k��,5.8,��
2016/12/20,08:40,1.093,1.829,1.192,2.079,1.424,0.567,1.036,0.963,���k��,4.6,��
2016/12/20,08:50,1.092,1.830,1.194,2.084,1.427,0.569,1.037,0.964,��,3.9,��
2016/12/20,09:00,1.092,1.831,1.193,2.077,1.427,0.567,1.040,0.961,���k��,3.2,��
2016/12/20,09:10,1.092,1.832,1.192,2.084,1.425,0.569,1.038,0.963,���k��,3.1,��
2016/12/20,09:20,1.094,1.827,1.195,2.081,1.425,0.571,1.037,0.963,�k�k��,1.1,��
2016/12/20,09:30,1.093,1.830,1.194,2.082,1.425,0.569,1.038,0.964,���k��,0.6,��
2016/12/20,09:40,1.094,1.831,1.195,2.082,1.425,0.570,1.038,0.962,�k��,1.2,��
2016/12/20,09:50,1.093,1.829,1.193,2.083,1.427,0.569,1.035,0.961,�k�k��,2.5,��
2016/12/20,10:00,1.092,1.833,1.196,2.082,1.427,0.571,1.036,0.962,�k�k��,1.1,��
2016/12/20,10:10,1.096,1.832,1.195,2.082,1.425,0.571,1.036,0.962,���k��,0.6,��
2016/12/20,10:20,1.092,1.836,1.191,2.084,1.426,0.569,1.039,0.962,�k,1.5,��
2016/12/20,10:30,1.094,1.829,1.196,2.086,1.429,0.569,1.036,0.965,�k�k��,0.8,��
2016/12/20,10:40,1.095,1.830,1.196,2.085,1.428,0.570,1.039,0.961,�k�k��,0.8,��
2016/12/20,10:50,1.096,1.829,1.195,2.084,1.426,0.568,1.037,0.963,�k��,1.1,��
2016/12/20,11:00,1.096,1.831,1.195,2.087,1.427,0.569,1.038,0.963,���k��,2.2,��
2016/12/20,11:10,1.098,1.831,1.194,2.086,1.426,0.567,1.038,0.962,���k��,1.5,��
2016/12/20,11:20,1.098,1.832,1.195,2.085,1.426,0.568,1.038,0.964,�k��,1.9,��
2016/12/20,11:30,1.100,1.829,1.195,2.088,1.429,0.567,1.038,0.962,���쓌,1.2,��
2016/12/20,11:40,1.099,1.831,1.196,2.083,1.428,0.567,1.038,0.963,���k��,1.7,��
2016/12/20,11:50,1.095,1.833,1.193,2.085,1.430,0.569,1.039,0.964,�k��,2.6,��
2016/12/20,12:00,1.096,1.831,1.195,2.085,1.428,0.569,1.039,0.964,�k��,2.6,��
2016/12/20,12:10,1.096,1.834,1.195,2.086,1.429,0.569,1.038,0.965,���k��,2.5,��
2016/12/20,12:20,1.098,1.831,1.196,2.086,1.428,0.570,1.039,0.964,��,2.3,��
2016/12/20,12:30,1.094,1.823,1.196,2.083,1.430,0.570,1.038,0.962,��,3.0,��
2016/12/20,12:40,1.097,1.830,1.195,2.086,1.426,0.571,1.037,0.963,���쓌,1.9,��
2016/12/20,12:50,1.097,1.830,1.198,2.087,1.429,0.570,1.040,0.963,���k��,2.5,��
2016/12/20,13:00,1.095,1.831,1.196,2.085,1.428,0.570,1.038,0.964,�k��,2.9,��
2016/12/20,13:10,1.098,1.832,1.197,2.087,1.431,0.571,1.039,0.961,�k��,2.6,��
2016/12/20,13:20,1.100,1.831,1.198,2.085,1.426,0.569,1.035,0.960,���k��,2.5,��
2016/12/20,13:30,1.100,1.830,1.195,2.086,1.427,0.570,1.040,0.962,�k��,2.5,��
2016/12/20,13:40,1.099,1.829,1.197,2.088,1.425,0.570,1.038,0.961,�k��,2.2,��
2016/12/20,13:50,1.099,1.829,1.198,2.088,1.429,0.571,1.038,0.960,-,-,��
2016/12/20,14:00,1.115,1.830,1.198,2.086,1.428,0.570,1.038,0.961,-,-,��
2016/12/20,14:10,1.116,1.828,1.196,2.085,1.426,0.571,1.037,0.964,-,-,��
2016/12/20,14:20,1.118,1.833,1.195,2.085,1.431,0.569,1.039,0.963,-,-,��
2016/12/20,14:30,1.119,1.833,1.202,2.089,1.433,0.569,1.039,0.964,-,-,��
2016/12/20,14:40,1.119,1.836,1.195,2.087,1.432,0.571,1.039,0.964,-,-,��
2016/12/20,14:50,1.119,1.837,1.195,2.085,1.432,0.570,1.038,0.963,-,-,��
2016/12/20,15:00,1.117,1.834,1.199,2.084,1.433,0.568,1.037,0.965,-,-,��
2016/12/20,15:10,1.117,1.836,1.198,2.088,1.434,0.571,1.039,0.962,-,-,��
2016/12/20,15:20,1.119,1.837,1.197,2.088,1.430,0.571,1.037,0.965,-,-,��
2016/12/20,15:30,1.116,1.836,1.198,2.085,1.432,0.569,1.040,0.963,-,-,��
2016/12/20,15:40,1.118,1.837,1.198,2.085,1.432,0.569,1.039,0.964,-,-,��
2016/12/20,15:50,1.116,1.835,1.195,2.083,1.431,0.570,1.038,0.963,-,-,��
2016/12/20,16:00,1.101,1.832,1.198,2.083,1.431,0.569,1.038,0.962,-,-,�L
2016/12/20,16:10,1.101,1.832,1.195,2.084,1.429,0.570,1.039,0.963,-,-,��
2016/12/20,16:20,1.099,1.837,1.195,2.085,1.435,0.569,1.040,0.962,-,-,��
2016/12/20,16:30,1.099,1.833,1.195,2.086,1.432,0.569,1.037,0.963,-,-,��
2016/12/20,16:40,1.101,1.831,1.197,2.085,1.431,0.570,1.038,0.964,�k��,1.2,��
2016/12/20,16:50,1.099,1.838,1.197,2.081,1.430,0.569,1.040,0.962,�k��,4.8,��
2016/12/20,17:00,1.100,1.831,1.196,2.085,1.432,0.570,1.038,0.963,�k��,6.4,�L
2016/12/20,17:10,1.100,1.834,1.198,2.085,1.432,0.569,1.037,0.961,�k��,7.0,�L
2016/12/20,17:20,1.100,1.835,1.195,2.087,1.431,0.571,1.039,0.963,�k��,6.9,�L
2016/12/20,17:30,1.097,1.832,1.196,2.087,1.430,0.569,1.036,0.961,�k��,5.9,��
2016/12/20,17:40,1.097,1.832,1.196,2.080,1.430,0.568,1.035,0.963,�k��,6.4,��
2016/12/20,17:50,1.097,1.831,1.193,2.081,1.427,0.569,1.037,0.962,�k��,5.0,��
2016/12/20,18:00,1.096,1.831,1.195,2.085,1.426,0.567,1.037,0.961,�k��,6.1,��
2016/12/20,18:10,1.096,1.832,1.196,2.083,1.427,0.567,1.038,0.960,�k��,5.4,��
2016/12/20,18:20,1.096,1.829,1.195,2.082,1.429,0.567,1.036,0.960,�k��,5.1,��
2016/12/20,18:30,1.096,1.832,1.194,2.083,1.427,0.568,1.038,0.962,�k��,5.6,��
2016/12/20,18:40,1.094,1.831,1.194,2.083,1.426,0.567,1.036,0.962,�k��,5.6,��
2016/12/20,18:50,1.095,1.832,1.193,2.085,1.427,0.567,1.035,0.961,�k��,4.8,��
2016/12/20,19:00,1.095,1.834,1.190,2.083,1.428,0.565,1.037,0.964,�k��,4.5,��
2016/12/20,19:10,1.094,1.832,1.193,2.081,1.429,0.567,1.037,0.959,�k��,5.8,��
2016/12/20,19:20,1.094,1.829,1.195,2.082,1.428,0.568,1.036,0.961,�k��,5.7,��
2016/12/20,19:30,1.093,1.831,1.193,2.081,1.426,0.568,1.037,0.959,�k��,4.7,��
2016/12/20,19:40,1.096,1.833,1.194,2.080,1.427,0.568,1.037,0.961,�k��,2.6,��
2016/12/20,19:50,1.095,1.830,1.193,2.083,1.426,0.568,1.037,0.961,�k��,1.2,��
2016/12/20,20:00,1.092,1.829,1.192,2.079,1.425,0.568,1.038,0.961,�k�k��,1.2,��
2016/12/20,20:10,1.094,1.831,1.195,2.082,1.426,0.566,1.037,0.961,�k�k��,2.3,��
2016/12/20,20:20,1.092,1.826,1.193,2.083,1.425,0.566,1.037,0.961,�k�k��,4.0,��
2016/12/20,20:30,1.093,1.830,1.193,2.082,1.425,0.566,1.036,0.960,���k��,2.3,��
2016/12/20,20:40,1.092,1.831,1.194,2.080,1.426,0.566,1.038,0.960,��,2.3,��
2016/12/20,20:50,1.093,1.832,1.193,2.081,1.425,0.566,1.037,0.959,��,2.2,��
2016/12/20,21:00,1.092,1.828,1.192,2.080,1.424,0.567,1.038,0.960,�k�k��,3.0,��
2016/12/20,21:10,1.092,1.829,1.194,2.079,1.424,0.567,1.037,0.959,�k��,4.5,��
2016/12/20,21:20,1.093,1.828,1.194,2.080,1.423,0.566,1.036,0.961,�k��,5.7,��
2016/12/20,21:30,1.092,1.831,1.193,2.080,1.423,0.566,1.038,0.961,�k��,6.1,��
2016/12/20,21:40,1.093,1.827,1.191,2.079,1.427,0.566,1.036,0.958,�k�k��,4.6,��
2016/12/20,21:50,1.093,1.831,1.190,2.079,1.426,0.567,1.036,0.959,�k��,5.5,��
2016/12/20,22:00,1.089,1.828,1.192,2.079,1.426,0.568,1.036,0.961,�k��,5.2,��
2016/12/20,22:10,1.092,1.828,1.192,2.081,1.425,0.568,1.038,0.960,�k��,5.7,��
2016/12/20,22:20,1.091,1.829,1.190,2.081,1.424,0.565,1.036,0.960,�k�k��,5.2,��
2016/12/20,22:30,1.092,1.829,1.190,2.084,1.426,0.567,1.037,0.959,�k��,5.4,��
2016/12/20,22:40,1.091,1.826,1.191,2.081,1.423,0.566,1.036,0.959,�k��,4.3,��
2016/12/20,22:50,1.090,1.829,1.190,2.084,1.423,0.567,1.036,0.959,�k��,3.7,��
2016/12/20,23:00,1.090,1.829,1.192,2.079,1.426,0.567,1.037,0.958,���k��,3.5,��
2016/12/20,23:10,1.091,1.827,1.190,2.081,1.423,0.566,1.037,0.960,���k��,4.1,��
2016/12/20,23:20,1.092,1.829,1.191,2.082,1.427,0.567,1.035,0.961,���k��,4.2,��
2016/12/20,23:30,1.092,1.827,1.191,2.081,1.425,0.567,1.036,0.961,���k��,5.5,��
2016/12/20,23:40,1.091,1.827,1.190,2.077,1.426,0.567,1.037,0.961,���k��,4.8,��
2016/12/20,23:50,1.093,1.822,1.188,2.075,1.424,0.566,1.037,0.960,���k��,4.2,��
